Location: Unspecified
(0.0000°N, 0.0000°E)
Time: 06:50:30
(UTC+02:00)

Cosmos 1538 Rocket - Visible Passes

Search period start: 01 July 2015 00:00
Search period end: 11 July 2015 00:00
Orbit: 753 x 792 km, 74.0° (Epoch: 30 June)

Date Brightness Start Highest point End Pass type
(mag) Time Alt. Az. Time Alt. Az. Time Alt. Az.
01 Jul 6.4 06:12:19 10° SE 06:15:43 18° ESE 06:19:19 10° ENE visible
02 Jul 4.2 07:17:06 10° SSW 07:22:06 49° WNW 07:27:03 10° N visible
03 Jul 4.0 06:42:10 15° S 06:46:30 83° E 06:51:39 10° NNE visible
04 Jul 5.1 06:08:09 23° SSE 06:10:51 40° ESE 06:15:41 10° NNE visible
05 Jul 6.1 05:34:05 19° ESE 05:35:09 21° ESE 05:39:01 10° NE visible
05 Jul 5.2 07:14:31 15° WSW 07:17:13 22° WNW 07:21:01 10° NNW visible
06 Jul 4.3 06:40:24 38° WSW 06:41:32 43° WNW 06:46:22 10° N visible
07 Jul 3.9 06:06:14 79° N 06:06:14 79° N 06:11:03 10° NNE visible
08 Jul 5.5 05:32:01 33° NE 05:32:01 33° NE 05:35:12 10° NNE visible
09 Jul 6.7 04:57:44 14° ENE 04:57:44 14° ENE 04:58:41 10° NE visible
09 Jul 5.7 06:38:08 17° NW 06:38:08 17° NW 06:40:10 10° NNW visible
10 Jul 5.7 06:03:47 21° NNW 06:03:47 21° NNW 06:05:40 10° N visible
